| time (UTC) | temp C | wind direction | speed KPH | gust KPH | rain 1hr cm | rain 24hr cm | rain mn cm | humidity % | barometer mb |
| 20260508060531 | 3 | 0 | 0.0 | 0.0 | 0.00 | 0.03 | 0.00 | 98 | 1008.4 |
| 20260508054532 | 3 | 0 | 0.0 | 1.6 | 0.00 | 0.03 | 0.00 | 98 | 1008.6 |
| 20260508052532 | 3 | 236 | 1.6 | 1.6 | 0.00 | 0.03 | 0.00 | 98 | 1008.7 |
| 20260508050532 | 3 | 263 | 0.0 | 1.6 | 0.00 | 0.03 | 0.00 | 98 | 1008.9 |
| 20260508044532 | 3 | 0 | 0.0 | 0.0 | 0.00 | 0.18 | 0.00 | 98 | 1009.0 |
| 20260508042532 | 4 | 0 | 0.0 | 0.0 | 0.00 | 0.46 | 0.00 | 98 | 1009.2 |
| 20260508040532 | 5 | 0 | 0.0 | 0.0 | 0.00 | 0.56 | 0.00 | 98 | 1009.0 |
| 20260508034532 | 5 | 0 | 0.0 | 0.0 | 0.00 | 0.56 | 0.56 | 98 | 1009.2 |
| 20260508032532 | 5 | 0 | 0.0 | 0.0 | 0.00 | 0.56 | 0.56 | 98 | 1009.2 |
| 20260508020532 | 8 | 170 | 0.0 | 3.2 | 0.00 | 0.56 | 0.56 | 98 | 1008.5 |
| 20260508014533 | 8 | 57 | 0.0 | 3.2 | 0.00 | 0.56 | 0.56 | 98 | 1008.3 |
| 20260508012532 | 9 | 94 | 3.2 | 9.7 | 0.00 | 0.56 | 0.56 | 98 | 1008.2 |
| 20260508010532 | 10 | 161 | 1.6 | 6.4 | 0.00 | 0.61 | 0.56 | 98 | 1007.8 |
| 20260508004532 | -17 | 0 | 0.0 | 0.0 | 0.00 | 0.61 | 0.56 | 100 | |
| 20260508000532 | 11 | 0 | 0.0 | 0.0 | 0.00 | 0.64 | 0.56 | 98 | 1006.9 |
| 20260507222532 | 14 | 174 | 3.2 | 8.0 | 0.00 | 0.76 | 0.56 | 98 | 1005.6 |
| 20260507214533 | 16 | 244 | 3.2 | 6.4 | 0.00 | 0.99 | 0.56 | 98 | 1005.5 |
| 20260507204532 | 15 | 233 | 4.8 | 6.4 | 0.00 | 1.14 | 0.56 | 98 | 1004.9 |
| 20260507202532 | 15 | 250 | 6.4 | 8.0 | 0.00 | 1.19 | 0.56 | 98 | 1005.0 |
| 20260507180533 | 18 | 236 | 8.0 | 11.3 | 0.00 | 1.27 | 0.56 | 98 | 1006.0 |
| 20260507170532 | 18 | 232 | 8.0 | 11.3 | 0.00 | 1.27 | 0.56 | 98 | 1006.2 |
| 20260507164532 | 16 | 220 | 8.0 | 9.7 | 0.00 | 1.27 | 0.56 | 98 | 1006.4 |
| 20260507154532 | 20 | 253 | 6.4 | 12.9 | 0.00 | 1.27 | 0.56 | 98 | 1007.0 |
| 20260507152532 | 18 | 206 | 4.8 | 9.7 | 0.00 | 1.27 | 0.56 | 98 | 1007.2 |
| 20260507150532 | 19 | 261 | 4.8 | 8.0 | 0.00 | 1.27 | 0.56 | 98 | 1007.3 |
| 20260507144532 | 20 | 237 | 4.8 | 6.4 | 0.00 | 1.27 | 0.56 | 98 | 1007.4 |
| 20260507142533 | 20 | 262 | 3.2 | 6.4 | 0.00 | 1.27 | 0.56 | 98 | 1007.5 |
| 20260507140532 | 18 | 247 | 3.2 | 6.4 | 0.00 | 1.27 | 0.56 | 98 | 1007.8 |
| 20260507134532 | 17 | 208 | 4.8 | 8.0 | 0.00 | 1.27 | 0.56 | 98 | 1007.8 |
| 20260507132532 | 16 | 292 | 3.2 | 8.0 | 0.00 | 1.27 | 0.56 | 98 | 1008.0 |
| 20260507130533 | -17 | 196 | 3.2 | 4.8 | 0.00 | 1.27 | 0.56 | 100 | |
| 20260507122535 | 11 | 188 | 3.2 | 6.4 | 0.00 | 1.27 | 0.56 | 98 | 1008.3 |
| 20260507120532 | 11 | 238 | 1.6 | 3.2 | 0.00 | 1.27 | 0.56 | 98 | 1008.1 |
| 20260507112533 | 8 | 235 | 0.0 | 1.6 | 0.00 | 1.27 | 0.56 | 98 | 1008.7 |
| 20260507110532 | 8 | 0 | 0.0 | 0.0 | 0.00 | 1.27 | 0.56 | 98 | 1009.3 |
| 20260507104532 | 8 | 0 | 0.0 | 1.6 | 0.00 | 1.27 | 0.56 | 98 | 1009.0 |
| 20260507102532 | 8 | 204 | 1.6 | 3.2 | 0.00 | 1.27 | 0.56 | 98 | 1008.3 |
| 20260507100533 | 8 | 159 | 0.0 | 3.2 | 0.03 | 1.27 | 0.56 | 98 | 1008.1 |
| 20260507094532 | 8 | 195 | 1.6 | 3.2 | 0.03 | 1.27 | 0.56 | 98 | 1007.9 |
| 20260507092533 | 8 | 189 | 0.0 | 3.2 | 0.03 | 1.27 | 0.56 | 98 | 1008.0 |
| 20260507090532 | 8 | 193 | 1.6 | 6.4 | 0.00 | 1.24 | 0.53 | 98 | 1007.9 |
| 20260507084532 | 8 | 208 | 3.2 | 6.4 | 0.00 | 1.24 | 0.53 | 98 | 1007.5 |
| 20260507082532 | 9 | 215 | 1.6 | 3.2 | 0.00 | 1.24 | 0.53 | 98 | 1007.7 |
| 20260507080532 | 10 | 174 | 1.6 | 3.2 | 0.00 | 1.24 | 0.53 | 98 | 1007.3 |
| 20260507074532 | 10 | 265 | 0.0 | 3.2 | 0.00 | 1.24 | 0.53 | 98 | 1007.2 |
| 20260507072535 | 10 | 225 | 0.0 | 1.6 | 0.00 | 1.24 | 0.53 | 98 | 1006.8 |
| 20260507070532 | 10 | 0 | 0.0 | 0.0 | 0.00 | 1.24 | 0.53 | 98 | 1006.6 |
| 20260507064532 | 10 | 225 | 0.0 | 3.2 | 0.00 | 1.24 | 0.53 | 98 | 1006.6 |